Location: CNYAC Observatory
(43.2150°N, 74.9500°W)
Time: 02:15:35
(UTC-04:00)

Daily predictions for brighter satellites

Satellite Brightness Start Highest point End
(mag) Time Altitude Azimuth Time Altitude Azimuth Time Altitude Azimuth
SL-16 R/B 4.1 02:31:15 31° NNE 02:31:15 31° NNE 02:35:08 10° N
CENTAUR R/B 4.1 02:42:56 30° ENE 02:42:56 30° ENE 02:46:34 10° NE
Cosmos 2322 Rocket 4.4 02:46:16 19° ENE 02:46:16 19° ENE 02:48:25 10° NE
SL-16 R/B 4.3 02:49:59 20° ENE 02:49:59 20° ENE 02:52:25 10° NE
USA 215 4.4 02:42:11 10° E 02:48:06 38° NNE 02:51:51 21° NNW
ATLAS 3B R/B 4.4 02:58:26 23° NNW 02:58:44 23° NNW 03:04:13 10° NNE
CZ-2D R/B 3.7 03:08:48 10° NNE 03:11:58 33° NE 03:11:58 33° NE
Cosmos 2360 Rocket 4.4 03:16:06 17° ESE 03:16:21 17° E 03:19:49 10° ENE
Cosmos 1980 Rocket 3.7 03:19:15 32° NNE 03:19:15 32° NNE 03:22:13 10° NNE
Resurs 1-4 Rocket 3.7 03:13:44 10° NNE 03:16:34 31° NE 03:16:34 31° NE
Cosmos 2263 Rocket 3.4 03:27:25 10° NNW 03:31:06 36° NNE 03:31:06 36° NNE
FALCON 9 R/B 4.3 03:31:24 58° SSW 03:32:55 60° S 04:09:26 10° ESE
Cosmos 2315 Rocket 4.0 04:10:00 70° NW 04:10:00 70° NW 04:15:49 10° N
Lacrosse 4 Rocket 3.4 04:08:50 10° N 04:12:28 28° NE 04:16:09 10° ESE
SL-16 R/B 3.9 04:16:19 24° NW 04:16:19 24° NW 04:18:55 10° NNW
DNEPR-1 R/B 4.3 04:14:37 64° NNW 04:14:37 64° NNW 04:19:11 10° NNE
Tiangong 2 4.0 04:27:08 16° E 04:27:08 16° E 04:27:50 10° E
SL-08 ROCKET BODY 4.3 04:19:24 10° N 04:25:20 85° E 04:27:25 42° SSE
Cosmos 2322 Rocket 2.5 04:28:06 50° NW 04:28:06 50° NW 04:33:10 10° NNE
ADEOS Rocket 3.2 04:24:32 10° N 04:29:18 46° NW 04:29:18 46° NW
Nadezhda 1 Rocket 4.5 04:26:10 19° SSE 04:30:23 55° E 04:36:18 10° NNE
USA 215 3.2 04:24:05 10° SE 04:30:40 90° NE 04:37:16 10° NW
CENTAUR R/B 3.2 04:30:07 39° WNW 04:30:56 41° NW 04:37:33 10° NNE
SL-16 R/B 2.5 04:31:51 49° NW 04:31:51 49° NW 04:37:09 10° NNE
COSMOS 2428 4.1 04:32:15 16° SSE 04:36:09 35° ESE 04:41:16 10° NE
Cosmos 2074 Rocket 3.9 04:35:48 10° N 04:42:04 83° W 04:47:29 14° S
Cosmos 2219 Rocket 4.3 04:39:18 10° SSE 04:43:31 22° E 04:47:45 10° NE
ARIANE 5 R/B 4.0 04:41:13 10° N 04:44:11 23° NW 04:44:11 23° NW
Meteor 2-13 Rocket 4.4 04:41:32 10° N 04:47:43 84° E 04:53:51 10° S
ISS -1.2 04:51:36 14° SE 04:51:36 14° SE 04:52:06 10° SE
Cosmos 1844 Rocket 3.7 04:45:45 10° NNW 04:51:07 45° ENE 04:56:26 10° SE
Genesis I 4.5 04:52:42 30° NNW 04:52:42 30° NNW 04:55:35 10° NNE
IRS-1C Rocket 4.3 04:48:05 10° NNE 04:53:21 68° ESE 04:57:00 20° S
CZ-2D R/B 3.5 04:49:36 10° NNW 04:53:18 23° NW 04:53:18 23° NW
Cosmos 1544 Rocket 3.5 04:52:40 10° NNW 04:57:05 62° W 04:57:05 62° W
Resurs 1-4 Rocket 3.6 04:54:34 10° NNW 04:57:39 20° NW 04:57:39 20° NW
MTI 4.0 04:58:44 67° ESE 04:59:00 72° ENE 05:02:17 10° N
Cosmos 2360 Rocket 2.1 04:57:54 44° SW 04:59:40 71° WNW 05:05:21 10° NNE
Cosmos 2278 Rocket 4.4 04:56:13 10° N 05:00:56 26° NE 05:05:38 10° ESE
Cosmos 1980 Rocket 4.1 05:01:00 13° NW 05:01:39 14° NW 05:04:25 10° NNW
CZ-4B R/B 2.4 04:58:32 10° NNE 05:02:09 85° W 05:02:23 77° SW
Cosmos 1812 3.8 05:04:57 31° NW 05:04:57 31° NW 05:07:29 10° N
Okean O Rocket 1.5 05:03:44 10° N 05:08:10 72° WNW 05:09:49 38° SSW
PAYLOAD B 4.2 05:07:57 10° NNE 05:13:36 80° WNW 05:18:06 16° SSW
Cosmos 2184 Rocket 4.2 05:10:22 10° NNW 05:16:15 47° W 05:22:10 10° SSW
Cosmos 2263 Rocket 4.1 05:11:55 10° NW 05:12:41 13° NW 05:12:41 13° NW
Okean-O 4.0 05:13:53 10° NNE 05:18:04 40° E 05:22:14 10° SSE
Cosmos 1340 2.8 05:18:04 47° W 05:18:25 49° WNW 05:22:07 10° N
Meteor 1-12 Rocket 4.3 05:13:15 10° NNW 05:18:42 52° W 05:24:12 10° SSW
Cosmos 1777 Rocket 4.4 05:17:00 10° NW 05:21:53 38° WSW 05:26:43 10° SSW
ATLAS 5 CENTAUR R/B 3.6 05:17:34 10° NNW 05:23:10 42° NE 05:29:13 10° ESE
DELTA 2 R/B (1) 4.1 05:20:34 27° SW 05:23:14 46° SSE 05:28:30 10° E
Cosmos 2333 Rocket 3.6 05:19:05 10° S 05:24:19 39° ESE 05:29:36 10° NE
Cosmos 1666 3.5 05:20:47 10° N 05:24:35 55° E 05:28:23 10° SSE
ADEOS II 2.1 05:21:15 10° N 05:26:29 65° WNW 05:30:52 15° SSW
Cosmos 1743 2.6 05:22:54 10° N 05:26:48 82° W 05:30:38 10° S
Meteor 1-31 Rocket 3.6 05:23:43 10° NNE 05:27:27 50° E 05:31:08 10° S
Cosmos 1455 Rocket 3.8 05:27:01 10° NNW 05:30:56 32° W 05:32:08 27° WSW
Lacrosse 5 3.9 05:34:52 11° SSW 05:34:52 11° SSW 05:35:09 10° SSW
MOS 1 Rocket 4.2 05:28:02 10° N 05:32:06 28° WNW 05:33:14 25° W
Cosmos 1025 Rocket 4.1 05:28:00 10° SSE 05:32:11 47° E 05:36:24 10° NNE
Cosmos 2322 4.1 05:29:55 25° WSW 05:32:56 46° WNW 05:38:27 10° NNE
EO 1 Del DPAF 3.8 05:34:09 18° SSW 05:36:25 34° W 05:39:59 10° NNW
Cosmos 962 Rocket 4.4 05:30:58 10° N 05:37:13 81° W 05:43:33 10° S
Meteor 1-13 Rocket 4.1 05:34:58 10° SSW 05:40:28 73° WNW 05:46:06 10° N
Okean 1 4.4 05:40:04 24° W 05:40:45 25° WNW 05:44:09 10° NNW
USA 116 3.9 05:41:02 10° S 05:45:09 75° W 05:49:52 10° NNW
Cosmos 1238 Rocket 2.5 05:46:13 21° SW 05:47:49 41° W 05:50:39 10° N
Cosmos 2154 Rocket 4.2 05:44:01 10° NNW 05:49:55 48° W 05:55:48 10° SSW
Cosmos 1975 4.1 05:47:09 10° NW 05:50:07 20° W 05:50:38 19° W
Meteor 2-19 Rocket 4.4 05:44:48 10° N 05:50:55 77° W 05:56:57 10° S
Lacrosse 4 Rocket 2.2 05:47:29 10° NW 05:51:09 30° WSW 05:54:52 10° S
Cosmos 2333 4.2 05:46:19 10° SW 05:51:55 67° WNW 05:57:38 10° NNE
Cosmos 1844 3.7 05:47:14 10° NNW 05:53:02 79° WSW 05:58:43 10° SSE
Cosmos 2208 Rocket 4.4 05:53:05 10° SW 05:58:14 47° WNW 06:03:29 10° N
Aureole 2 Rocket 3.7 05:55:32 10° S 05:59:04 43° ESE 06:02:21 10° NE
CZ-4B R/B 3.8 05:54:03 10° N 05:59:12 37° WNW 06:04:17 10° SW
Meteor PRIRODA 4.1 05:57:05 10° N 06:00:40 43° WNW 06:04:15 10° SW
Tiangong 2 1.6 05:59:14 18° W 06:01:13 43° SSW 06:04:13 10° SE
Iridium 2 3.7 05:57:43 10° N 06:01:34 84° E 06:05:23 10° S
Cosmos 1437 3.4 05:59:34 10° S 06:02:47 58° E 06:06:02 10° NNE
Cosmos 1867 3.7 05:59:34 10° NNW 06:05:04 80° NE 06:10:30 10° SE
Cosmos 2058 Rocket 4.3 06:01:05 10° N 06:05:28 48° ENE 06:09:46 10° SSE
SKYMED 2 3.8 06:03:59 10° SSE 06:08:18 76° ENE 06:12:39 10° N
Geosat 4.3 06:03:26 10° SE 06:08:26 72° ENE 06:13:28 10° NNW
Okean 1-7 Rocket 3.7 06:04:24 10° SSW 06:08:50 54° WNW 06:13:15 10° N
Cosmos 2181 Rocket 4.1 06:05:03 10° SSW 06:11:08 57° WNW 06:17:21 10° N
Cosmos 2322 Rocket 4.3 06:12:35 10° NW 06:13:09 10° NW 06:13:44 10° NNW
SL-8 Rocket 4.0 06:07:46 10° NNW 06:13:58 69° W 06:20:05 10° S
USA 215 4.2 06:08:55 10° S 06:14:10 25° SW 06:19:27 10° WNW
Cosmos 1980 3.9 06:08:43 10° SSW 06:14:21 80° ESE 06:20:02 10° NNE
SL-16 R/B 4.4 06:17:06 10° NW 06:17:13 10° NW 06:17:20 10° NW
Meteor 1-23 Rocket 4.3 06:13:07 10° SSW 06:18:53 68° WNW 06:24:40 10° N
ERS-2 3.0 06:16:29 10° N 06:19:45 30° WNW 06:23:00 10° SW
COSMOS 2428 3.4 06:15:08 10° WSW 06:20:22 37° WNW 06:25:38 10° N
Radarsat Rocket 4.1 06:15:28 10° NNE 06:21:32 83° ESE 06:27:20 10° SSW
Thor Agena Rocket 3.7 06:18:30 10° S 06:23:24 49° W 06:28:18 10° NNW
USA 229 DEB 3.7 06:18:35 10° SW 06:25:25 75° NW 06:32:26 10° NE
USA 229 3.7 06:18:42 10° SW 06:25:31 76° NW 06:32:31 10° NE
Meteor 2-9 Rocket 4.5 06:20:49 10° NNW 06:26:14 46° W 06:31:30 10° SSW
Cosmos 2219 Rocket 2.4 06:21:35 10° SW 06:27:03 53° WNW 06:32:32 10° NNE
Cosmos 1606 Rocket 3.6 06:23:36 10° NNW 06:28:00 59° W 06:32:23 10° S
Cosmos 864 Rocket 4.5 06:22:09 10° N 06:28:20 77° W 06:34:32 10° S
Okean 2 3.5 06:24:44 10° SSW 06:28:48 56° W 06:32:57 10° N
Cosmos 2150 Rocket 4.1 06:24:37 10° NNW 06:29:48 58° WSW 06:35:02 10° S
